Location: *
(12.5665°N, 8.3471°E)
Time: 12:17:44
(UTC+00:00)

USA 229 DEB - Pass Details

Date: 23 September 2019
Orbit: 996 x 1217 km, 63.4° (Epoch: 17 October)

Event Time Altitude Azimuth Distance (km) Brightness Sun altitude
Rises 04:37:05 0° 214° (SW) 3,707 6.2 -10.3°
Reaches altitude 10° 04:39:43 10° 219° (SW) 2,753 5.5 -9.6°
Maximum altitude 04:45:58 54° 295° (WNW) 1,191 3.7 -8.1°
Drops below altitude 10° 04:52:21 10° 12° (NNE) 2,799 6.1 -6.5°
Sets 04:55:03 0° 17° (NNE) 3,774 6.8 -5.9°
